TimeEDT,TemperatureF,Dew PointF,Humidity,Sea Level PressureIn,VisibilityMPH,Wind Direction,Wind SpeedMPH,Gust SpeedMPH,PrecipitationIn,Events,Conditions,WindDirDegrees,DateUTC
12:15 AM,53.6,52.7,97,29.91,10.0,WNW,4.6,-,N/A,,Overcast,300,2013-05-07 04:15:00
12:35 AM,53.6,52.2,95,29.91,10.0,NW,4.6,-,N/A,,Overcast,320,2013-05-07 04:35:00
12:55 AM,53.1,51.3,94,29.91,10.0,WNW,8.1,-,N/A,,Overcast,300,2013-05-07 04:55:00
1:15 AM,52.3,50.4,93,29.91,10.0,NW,8.1,-,N/A,,Overcast,310,2013-05-07 05:15:00
1:35 AM,51.8,50.2,94,29.92,10.0,WNW,4.6,-,N/A,,Overcast,290,2013-05-07 05:35:00
1:55 AM,50.9,50.0,97,29.91,10.0,NNW,3.5,-,N/A,,Mostly Cloudy,330,2013-05-07 05:55:00
2:15 AM,50.0,49.3,97,29.91,10.0,Calm,Calm,-,N/A,,Clear,0,2013-05-07 06:15:00
2:35 AM,49.5,48.9,98,29.91,10.0,Calm,Calm,-,N/A,,Clear,0,2013-05-07 06:35:00
2:55 AM,49.8,49.1,97,29.91,10.0,Calm,Calm,-,N/A,,Clear,0,2013-05-07 06:55:00
3:15 AM,49.5,49.1,99,29.90,10.0,Calm,Calm,-,N/A,,Clear,0,2013-05-07 07:15:00
3:35 AM,48.7,48.4,99,29.89,10.0,Calm,Calm,-,N/A,,Scattered Clouds,0,2013-05-07 07:35:00
3:55 AM,48.9,48.6,99,29.91,10.0,West,4.6,-,N/A,,Mostly Cloudy,280,2013-05-07 07:55:00
4:15 AM,50.0,49.6,99,29.90,5.0,Calm,Calm,-,N/A,Rain,Rain,0,2013-05-07 08:15:00
4:35 AM,49.1,48.7,99,29.89,10.0,Calm,Calm,-,N/A,,Mostly Cloudy,0,2013-05-07 08:35:00
4:55 AM,47.5,47.1,99,29.89,2.0,Calm,Calm,-,N/A,,Scattered Clouds,0,2013-05-07 08:55:00
5:15 AM,48.6,48.4,99,29.90,0.2,Calm,Calm,-,N/A,Fog,Fog,0,2013-05-07 09:15:00
5:35 AM,49.1,48.7,99,29.90,1.2,Calm,Calm,-,N/A,,Overcast,0,2013-05-07 09:35:00
5:55 AM,49.1,49.1,100,29.90,4.0,WNW,3.5,-,N/A,,Overcast,290,2013-05-07 09:55:00
6:15 AM,49.5,49.3,99,29.92,7.0,WNW,4.6,-,N/A,,Overcast,290,2013-05-07 10:15:00
6:35 AM,49.6,49.5,99,29.92,7.0,NW,3.5,-,N/A,,Overcast,310,2013-05-07 10:35:00
6:55 AM,49.6,49.1,98,29.94,7.0,Calm,Calm,-,N/A,,Overcast,0,2013-05-07 10:55:00
7:15 AM,49.6,49.1,98,29.94,5.0,Calm,Calm,-,N/A,,Overcast,0,2013-05-07 11:15:00
7:35 AM,49.6,49.3,99,29.95,4.0,NNE,4.6,-,N/A,,Overcast,30,2013-05-07 11:35:00
7:55 AM,50.0,49.5,98,29.95,5.0,Calm,Calm,-,N/A,,Overcast,0,2013-05-07 11:55:00
8:15 AM,50.5,49.5,96,29.96,7.0,West,4.6,-,N/A,,Overcast,270,2013-05-07 12:15:00
8:35 AM,50.7,49.1,94,29.96,10.0,West,3.5,-,N/A,,Overcast,270,2013-05-07 12:35:00
8:55 AM,51.4,49.8,94,29.98,10.0,West,3.5,-,N/A,,Overcast,260,2013-05-07 12:55:00
9:15 AM,52.2,50.7,95,29.99,10.0,WSW,3.5,-,N/A,,Overcast,240,2013-05-07 13:15:00
9:35 AM,52.3,50.4,93,29.99,10.0,SW,3.5,-,N/A,,Overcast,220,2013-05-07 13:35:00
9:55 AM,53.6,50.7,90,29.99,10.0,SSW,3.5,-,N/A,,Overcast,210,2013-05-07 13:55:00
10:15 AM,54.3,51.1,89,30.00,10.0,West,5.8,-,N/A,,Overcast,260,2013-05-07 14:15:00
10:35 AM,56.1,50.5,82,30.00,10.0,West,5.8,-,N/A,,Overcast,280,2013-05-07 14:35:00
10:55 AM,55.9,50.4,82,30.00,10.0,NW,3.5,-,N/A,,Overcast,310,2013-05-07 14:55:00
11:15 AM,55.9,50.9,83,30.01,10.0,West,5.8,-,N/A,,Overcast,270,2013-05-07 15:15:00
11:35 AM,56.3,50.5,81,30.01,10.0,West,5.8,-,N/A,,Overcast,260,2013-05-07 15:35:00
11:55 AM,56.5,51.1,82,30.01,10.0,SW,5.8,-,N/A,,Overcast,230,2013-05-07 15:55:00
12:15 PM,56.3,51.3,83,30.01,10.0,West,5.8,-,N/A,,Overcast,260,2013-05-07 16:15:00
12:35 PM,56.8,51.6,83,30.01,10.0,WSW,4.6,-,N/A,,Overcast,250,2013-05-07 16:35:00
12:55 PM,58.1,51.6,79,30.01,10.0,West,4.6,-,N/A,,Overcast,260,2013-05-07 16:55:00
1:15 PM,58.1,51.6,79,30.01,10.0,SW,6.9,-,N/A,,Overcast,220,2013-05-07 17:15:00
1:35 PM,58.1,51.3,78,30.01,10.0,WSW,8.1,-,N/A,,Overcast,250,2013-05-07 17:35:00
1:55 PM,58.5,51.4,77,30.01,10.0,West,5.8,-,N/A,,Overcast,260,2013-05-07 17:55:00
2:15 PM,60.3,51.8,74,30.01,10.0,WSW,5.8,-,N/A,,Overcast,250,2013-05-07 18:15:00
2:35 PM,61.2,51.8,71,30.00,10.0,West,6.9,-,N/A,,Overcast,270,2013-05-07 18:35:00
2:55 PM,61.2,51.3,70,30.00,10.0,West,6.9,-,N/A,,Overcast,280,2013-05-07 18:55:00
3:15 PM,61.9,51.3,68,30.00,10.0,WNW,4.6,-,N/A,,Overcast,300,2013-05-07 19:15:00
3:35 PM,63.7,52.3,67,30.00,10.0,NW,5.8,-,N/A,,Overcast,320,2013-05-07 19:35:00
3:55 PM,64.8,52.3,64,29.99,10.0,West,8.1,-,N/A,,Mostly Cloudy,260,2013-05-07 19:55:00
4:15 PM,64.8,51.4,62,29.99,10.0,West,6.9,-,N/A,,Scattered Clouds,260,2013-05-07 20:15:00
4:35 PM,66.0,50.9,58,29.99,10.0,WNW,10.4,-,N/A,,Scattered Clouds,300,2013-05-07 20:35:00
4:55 PM,65.8,50.9,58,29.98,10.0,WNW,9.2,-,N/A,,Mostly Cloudy,290,2013-05-07 20:55:00
5:15 PM,64.9,50.9,60,29.98,10.0,West,8.1,-,N/A,,Mostly Cloudy,260,2013-05-07 21:15:00
5:35 PM,66.2,51.1,58,29.98,10.0,West,9.2,-,N/A,,Scattered Clouds,270,2013-05-07 21:35:00
5:55 PM,66.6,50.4,56,29.98,10.0,West,10.4,-,N/A,,Clear,270,2013-05-07 21:55:00
6:15 PM,66.7,50.0,55,29.98,10.0,West,10.4,-,N/A,,Clear,280,2013-05-07 22:15:00
6:35 PM,66.6,50.9,57,29.99,10.0,West,8.1,-,N/A,,Clear,270,2013-05-07 22:35:00
6:55 PM,66.4,50.9,57,29.99,10.0,WNW,9.2,-,N/A,,Clear,290,2013-05-07 22:55:00
7:15 PM,66.0,51.4,59,29.99,10.0,West,6.9,-,N/A,,Clear,270,2013-05-07 23:15:00
7:35 PM,65.3,51.8,62,29.99,10.0,WNW,6.9,-,N/A,,Clear,300,2013-05-07 23:35:00
7:55 PM,64.2,52.0,64,29.99,10.0,West,4.6,-,N/A,,Clear,280,2013-05-07 23:55:00
8:15 PM,61.3,53.6,76,30.00,10.0,Calm,Calm,-,N/A,,Clear,0,2013-05-08 00:15:00
8:35 PM,57.7,53.4,85,30.00,10.0,Calm,Calm,-,N/A,,Clear,0,2013-05-08 00:35:00
8:55 PM,56.7,53.1,88,30.00,10.0,Calm,Calm,-,N/A,,Clear,0,2013-05-08 00:55:00
9:15 PM,55.4,52.9,91,30.00,10.0,Calm,Calm,-,N/A,,Clear,0,2013-05-08 01:15:00
9:35 PM,53.6,51.6,93,30.00,10.0,Calm,Calm,-,N/A,,Clear,0,2013-05-08 01:35:00
9:55 PM,52.9,51.4,95,30.01,10.0,Calm,Calm,-,N/A,,Clear,0,2013-05-08 01:55:00
10:15 PM,52.2,51.1,96,30.01,10.0,Calm,Calm,-,N/A,,Clear,0,2013-05-08 02:15:00
10:35 PM,51.3,50.4,97,30.02,10.0,Calm,Calm,-,N/A,,Clear,0,2013-05-08 02:35:00
10:55 PM,50.9,49.8,96,30.02,10.0,Calm,Calm,-,N/A,,Clear,0,2013-05-08 02:55:00
11:15 PM,50.7,50.2,98,30.03,5.0,Calm,Calm,-,N/A,,Clear,0,2013-05-08 03:15:00
11:35 PM,50.5,50.0,98,30.03,10.0,Calm,Calm,-,N/A,,Clear,0,2013-05-08 03:35:00
11:55 PM,49.6,49.3,99,30.03,10.0,Calm,Calm,-,N/A,,Clear,0,2013-05-08 03:55:00